Location: Kailua
(21.4020°N, 157.7390°W)
Time: 15:27:10
(UTC-10:00)

Cosmos 2297 Rocket - Visible Passes

Search period start: 29 May 2017 00:00
Search period end: 08 June 2017 00:00
Orbit: 839 x 844 km, 71.0° (Epoch: 29 May)

Date Brightness Start Highest point End Pass type
(mag) Time Alt. Az. Time Alt. Az. Time Alt. Az.
29 May 4.7 01:36:20 16° NNE 01:36:20 16° NNE 01:37:21 10° NNE visible
30 May 4.9 01:21:32 14° NNE 01:21:32 14° NNE 01:22:15 10° NNE visible
31 May 5.0 01:06:41 12° NNE 01:06:41 12° NNE 01:07:09 10° NNE visible
01 Jun 5.0 00:51:49 11° NNE 00:51:49 11° NNE 00:52:03 10° NNE visible
02 Jun 5.1 00:36:54 10° NNE 00:36:54 10° NNE 00:36:56 10° NNE visible
